Dewpoint
70 70 69 69 70 71 71 71 72 71 72 72 73 73 73 72 72 71 71 71 72 72
70 69 69 68 69 67 68 66 67 68 69 70 70 71 72 71 71 71 71 71 70 72
65 64 63 63 63 63 63 64 65 65 65 66 66 68 69 69 70 70 71 71 71 70
57 57 56 58 58 60 61 62 62 62 63 64 64 65 66 66 66 67 68 70 70 70
56 56 56 58 60 61 62 62 61 62 62 62 62 63 63 64 65 65 65 66 68 69
56 56 57 59 60 61 61 62 61 61 61 61 61 61 61 62 63 64 65 64 64 66
57 58 58 60 61 61 61 61 61 61 61 60 62 62 62 62 62 61 60 60 62 64
58 59 60 60 60 60 61 61 62 62 61 61 60 59 60 60 60 60 60 60 61 60
58 59 59 59 58 59 59 60 61 60 61 60 58 60 60 60 59 60 61 60 61 61
58 58 57 58 57 57 59 57 58 58 58 59 61 58 57 57 58 59 61 61 61 61
56 57 57 56 56 56 58 59 59 60 60 61 60 57 55 55 59 59 60 61 61 61
56 56 56 56 57 58 58 58 59 60 60 61 60 57 53 54 57 59 59 60 63 63
56 56 56 57 57 58 56 57 58 59 59 59 59 56 51 52 54 55 56 58 60 60
55 56 57 59 58 58 57 58 59 59 59 59 59 52 51 51 52 53 55 57 59 61
Wind_Speed
7 11 11 9 9 12 10 8 11 12 11 13 12 11 9 9 11 13 12 13 13 15
6 8 10 9 7 8 8 9 12 12 13 10 12 12 12 10 12 13 11 14 15 14
4 4 4 5 9 9 10 11 10 10 10 11 12 13 11 11 12 14 11 13 13 14
7 8 5 8 7 8 8 9 9 10 11 11 11 12 12 13 14 14 13 13 13 12
4 3 7 6 7 6 6 7 9 8 9 10 12 12 12 13 14 16 17 15 14 14
5 7 7 8 8 8 8 8 8 7 7 8 9 10 11 12 12 13 14 13 15 17
7 7 7 7 9 10 10 7 8 9 9 9 11 13 15 15 15 15 15 16 17 17
5 6 7 11 9 10 10 11 10 10 12 12 10 12 11 13 14 14 15 16 16 17
4 5 9 8 9 10 11 9 11 12 11 12 9 12 13 13 14 16 16 15 14 15
6 6 7 6 8 8 9 9 9 8 6 7 7 10 12 16 14 14 17 16 15 14
4 6 6 8 8 9 8 10 11 9 4 7 6 9 15 20 12 15 14 14 14 12
4 5 6 6 7 10 10 11 13 10 10 5 4 5 11 16 14 15 18 18 9 13
3 4 5 7 9 5 7 9 10 9 9 4 2 4 9 14 12 14 15 17 12 13
3 5 7 7 6 8 9 9 12 10 10 11 4 9 10 14 11 12 13 14 14 12
Wind_Direction
348 348 332 11 13 23 22 23 24 4 7 358 348 337 311 294 271 257 269 267 262 265
51 29 26 17 7 29 25 1 1 357 350 343 339 339 332 308 315 308 302 285 277 263
42 46 2 8 18 8 3 3 352 337 334 332 334 329 325 321 323 327 305 294 289 282
27 1 334 36 3 16 354 349 334 334 333 331 324 323 329 321 307 301 315 309 300 295
56 324 34 34 21 12 3 344 332 329 329 330 330 326 323 320 319 314 309 306 312 305
22 19 14 27 7 1 351 340 329 339 332 319 308 306 303 305 320 333 327 326 326 321
26 13 6 6 15 358 340 332 342 340 326 343 334 40 17 351 338 324 316 316 311 311
20 8 4 30 6 344 344 343 350 348 348 12 355 29 16 355 329 318 312 306 301 297
18 359 45 11 2 354 345 346 4 349 360 7 347 14 11 349 322 311 305 298 299 304
12 357 26 359 354 341 330 350 343 334 325 324 73 37 6 336 308 291 288 294 286 280
4 339 5 349 337 339 329 320 299 329 5 13 77 33 2 344 325 305 313 325 340 311
334 333 333 331 336 327 9 340 333 358 1 43 50 29 8 356 341 351 348 334 17 22
337 312 329 324 316 330 345 325 324 320 317 290 275 132 36 15 358 356 345 328 349 47
304 316 290 297 14 350 345 326 305 304 300 305 300 97 53 29 11 354 330 331 344 359